Location: downtown San Diego
(32.7310°N, 117.1990°W)
Time: 11:16:22
(UTC-07:00)

Cosmos 1758 Rocket - Pass Details

Date: 14 June 2018
Orbit: 602 x 637 km, 82.5° (Epoch: 21 June)

Event Time Altitude Azimuth Distance (km) Brightness Sun altitude
Exits shadow 22:05:36 62° 123° (ESE) 715 3.5 -21.7°
Maximum altitude 22:05:59 65° 94° (E) 697 3.5 -21.8°
Drops below altitude 10° 22:10:24 10° 13° (NNE) 2,011 6.6 -22.4°
Sets 22:12:38 0° 11° (N) 2,917 7.6 -22.7°
